{"data":{"norad_id":64479,"intl_designator":"2025-133H","name":"STARLINK-34528","alt_names":[],"object_type":"PAYLOAD","status":"ACTIVE","operator":null,"country":"US","launch_date":"2025-06-23","launch_site_code":"AFETR","launch_vehicle":null,"mission":null,"orbit_class":"UNKNOWN","rcs_meters":null,"size_class":null,"mass_kg":null,"dimensions":null,"purposes":["comms"],"wikipedia_slug":null,"has_3d_model":false,"image_url":null,"decayed_at":null,"tle_current":{"epoch":"2026-05-25T02:49:56.133984Z","epoch_age_seconds":71818,"freshness":"FRESH","line1":"1 64479U 25133H   26145.11801081  .00023002  00000+0  66770-3 0  9997","line2":"2 64479  53.1619 119.4020 0000179  23.0524 337.0487 15.35427804 52904","mean_motion":15.35427804,"eccentricity":1.79e-5,"inclination_deg":53.1619,"raan_deg":119.402,"arg_perigee_deg":23.0524,"mean_anomaly_deg":337.0487,"bstar":0.0006677,"rev_number":5290,"period_min":93.784937087149,"perigee_km":459.52769793537,"apogee_km":459.77249071335,"semimajor_km":6837.7870943244,"source":"CELESTRAK","updated_at":"2026-05-25T13:38:20.457747Z"}}}